When you browse on this site, cookies collect data to enhance your experience and personalize the content and advertising you see.
Visit our Privacy Policy to learn more. By continuing to use the site, you agree to this use of cookies and data.
  • In Schweiz
  • Länderverzeichnis
  • Für 7 Tage
  • Wassertemperatur
  • Satellitenkarten
  • Wetterkarte
  • Widgets
  • user-avatar
    Anmelden

    Stündliche Wetter Porto Alegre

    Heute, 24 Januar, Donnerstag

    Zeit Temperatur Niederschläge Wind Luftdruck Luftfeuchtigkeit
    00:00 +27°C° 0 mm 2 m/S 758 mmHg 83%
    01:00 +26°C° 0 mm 2 m/S 758 mmHg 85%
    02:00 +26°C° 0 mm 2 m/S 758 mmHg 87%
    03:00 +26°C° 0 mm 2 m/S 758 mmHg 89%
    04:00 +26°C° 0 mm 2 m/S 758 mmHg 90%
    05:00 +25°C° 0 mm 2 m/S 758 mmHg 91%
    06:00 +25°C° 0 mm 2 m/S 758 mmHg 92%
    07:00 +27°C° 0 mm 2 m/S 758 mmHg 87%
    08:00 +28°C° 0 mm 2 m/S 759 mmHg 81%
    09:00 +29°C° 0 mm 2 m/S 759 mmHg 75%
    10:00 +31°C° 0 mm 3 m/S 759 mmHg 68%
    11:00 +34°C° 0 mm 3 m/S 759 mmHg 60%
    12:00 +35°C° 0 mm 4 m/S 759 mmHg 53%
    13:00 +35°C° 0 mm 4 m/S 759 mmHg 52%
    14:00 +36°C° 0 mm 5 m/S 759 mmHg 52%
    15:00 +36°C° 0 mm 5 m/S 759 mmHg 51%
    16:00 +35°C° 0 mm 5 m/S 759 mmHg 55%
    17:00 +34°C° 0 mm 5 m/S 758 mmHg 59%
    18:00 +32°C° 0 mm 5 m/S 758 mmHg 62%
    19:00 +30°C° 0 mm 5 m/S 759 mmHg 66%
    20:00 +29°C° 0 mm 5 m/S 759 mmHg 70%
    21:00 +28°C° 0 mm 4 m/S 759 mmHg 74%
    22:00 +27°C° 0 mm 4 m/S 760 mmHg 75%
    23:00 +27°C° 0 mm 4 m/S 760 mmHg 75%

    Morgen, 25 Januar, Freitag

    Zeit Temperatur Niederschläge Wind Luftdruck Luftfeuchtigkeit
    00:00 +26°C° 0 mm 4 m/S 760 mmHg 76%
    01:00 +26°C° 0 mm 3 m/S 760 mmHg 78%
    02:00 +26°C° 0 mm 3 m/S 759 mmHg 79%
    03:00 +25°C° 0 mm 3 m/S 759 mmHg 80%
    04:00 +25°C° 0 mm 3 m/S 759 mmHg 81%
    05:00 +25°C° 0 mm 3 m/S 759 mmHg 82%
    06:00 +24°C° 0 mm 2 m/S 759 mmHg 83%
    07:00 +26°C° 0 mm 2 m/S 759 mmHg 77%
    08:00 +28°C° 0 mm 3 m/S 760 mmHg 71%
    09:00 +29°C° 0 mm 3 m/S 760 mmHg 64%
    10:00 +31°C° 0 mm 3 m/S 760 mmHg 59%
    11:00 +33°C° 0 mm 3 m/S 760 mmHg 53%
    12:00 +35°C° 0 mm 4 m/S 759 mmHg 48%
    13:00 +36°C° 0 mm 4 m/S 759 mmHg 47%
    14:00 +36°C° 0 mm 4 m/S 758 mmHg 46%
    15:00 +37°C° 0 mm 5 m/S 758 mmHg 44%
    16:00 +36°C° 0 mm 5 m/S 757 mmHg 49%
    17:00 +34°C° 0 mm 5 m/S 757 mmHg 53%
    18:00 +33°C° 0 mm 5 m/S 757 mmHg 58%
    19:00 +32°C° 0 mm 5 m/S 757 mmHg 62%
    20:00 +30°C° 0 mm 4 m/S 758 mmHg 66%
    21:00 +29°C° 0 mm 4 m/S 758 mmHg 70%
    22:00 +28°C° 0 mm 3 m/S 758 mmHg 72%
    23:00 +28°C° 0 mm 3 m/S 758 mmHg 73%

    übermorgen, 26 Januar, Samstag

    Zeit Temperatur Niederschläge Wind Luftdruck Luftfeuchtigkeit
    00:00 +27°C° 0 mm 3 m/S 759 mmHg 75%
    01:00 +27°C° 0 mm 2 m/S 758 mmHg 76%
    02:00 +26°C° 0 mm 2 m/S 758 mmHg 78%
    03:00 +26°C° 0 mm 2 m/S 757 mmHg 79%
    04:00 +25°C° 0 mm 1 m/S 757 mmHg 80%
    05:00 +25°C° 0 mm 1 m/S 758 mmHg 81%
    06:00 +24°C° 0 mm 1 m/S 758 mmHg 83%
    07:00 +27°C° 0 mm 1 m/S 758 mmHg 74%
    08:00 +29°C° 0 mm 1 m/S 759 mmHg 65%
    09:00 +31°C° 0 mm 1 m/S 759 mmHg 56%
    10:00 +33°C° 0 mm 1 m/S 759 mmHg 49%
    11:00 +35°C° 0 mm 1 m/S 759 mmHg 43%
    12:00 +37°C° 0 mm 1 m/S 759 mmHg 36%
    13:00 +39°C° 0 mm 2 m/S 758 mmHg 34%
    14:00 +39°C° 0 mm 3 m/S 757 mmHg 33%
    15:00 +40°C° 0 mm 3 m/S 757 mmHg 31%
    16:00 +38°C° 0 mm 4 m/S 756 mmHg 37%
    17:00 +37°C° 0 mm 4 m/S 756 mmHg 43%
    18:00 +36°C° 0 mm 4 m/S 756 mmHg 49%
    19:00 +34°C° 0 mm 4 m/S 757 mmHg 55%
    20:00 +31°C° 0 mm 3 m/S 757 mmHg 62%
    21:00 +30°C° 0 mm 3 m/S 758 mmHg 68%
    22:00 +29°C° 0 mm 2 m/S 758 mmHg 71%
    23:00 +28°C° 0 mm 2 m/S 758 mmHg 74%

    27 Januar, Sonntag

    Zeit Temperatur Niederschläge Wind Luftdruck Luftfeuchtigkeit
    00:00 +28°C° 0 mm 2 m/S 759 mmHg 76%
    01:00 +27°C° 0 mm 2 m/S 758 mmHg 78%
    02:00 +27°C° 0 mm 2 m/S 758 mmHg 79%
    03:00 +26°C° 0 mm 2 m/S 757 mmHg 80%
    04:00 +26°C° 0 mm 1 m/S 757 mmHg 81%
    05:00 +25°C° 0 mm 1 m/S 757 mmHg 82%
    06:00 +25°C° 0 mm 1 m/S 758 mmHg 82%
    07:00 +27°C° 0 mm 1 m/S 758 mmHg 72%
    08:00 +29°C° 0 mm 1 m/S 758 mmHg 63%
    09:00 +31°C° 0 mm 1 m/S 759 mmHg 53%
    10:00 +33°C° 0 mm 1 m/S 759 mmHg 46%
    11:00 +36°C° 0 mm 1 m/S 759 mmHg 39%
    12:00 +40°C° 0 mm 1 m/S 759 mmHg 32%
    13:00 +40°C° 0 mm 1 m/S 758 mmHg 30%
    14:00 +40°C° 0 mm 2 m/S 757 mmHg 29%
    15:00 +40°C° 0 mm 2 m/S 757 mmHg 28%
    16:00 +39°C° 0 mm 3 m/S 757 mmHg 34%
    17:00 +38°C° 0 mm 3 m/S 756 mmHg 41%
    18:00 +36°C° 0 mm 4 m/S 756 mmHg 47%
    19:00 +34°C° 0 mm 4 m/S 757 mmHg 53%
    20:00 +33°C° 0 mm 3 m/S 757 mmHg 59%
    21:00 +30°C° 0 mm 3 m/S 757 mmHg 65%
    22:00 +30°C° 0 mm 2 m/S 758 mmHg 66%
    23:00 +29°C° 0 mm 2 m/S 758 mmHg 68%

    28 Januar, Montag

    Zeit Temperatur Niederschläge Wind Luftdruck Luftfeuchtigkeit
    00:00 +28°C° 0 mm 1 m/S 758 mmHg 70%
    01:00 +28°C° 0 mm 1 m/S 758 mmHg 70%
    02:00 +28°C° 0 mm 1 m/S 757 mmHg 69%
    03:00 +27°C° 0 mm 1 m/S 757 mmHg 69%
    04:00 +27°C° 0 mm 1 m/S 757 mmHg 69%
    05:00 +27°C° 0 mm 1 m/S 757 mmHg 69%
    06:00 +26°C° 0 mm 1 m/S 758 mmHg 69%
    07:00 +28°C° 0 mm 1 m/S 758 mmHg 63%
    08:00 +30°C° 0 mm 2 m/S 759 mmHg 58%
    09:00 +32°C° 0 mm 2 m/S 759 mmHg 52%
    10:00 +35°C° 0 mm 2 m/S 759 mmHg 46%
    11:00 +37°C° 0 mm 2 m/S 759 mmHg 40%
    12:00 +39°C° 0 mm 2 m/S 758 mmHg 35%
    13:00 +39°C° 0 mm 2 m/S 758 mmHg 34%
    14:00 +40°C° 0 mm 2 m/S 757 mmHg 33%
    15:00 +40°C° 0 mm 2 m/S 757 mmHg 32%
    16:00 +38°C° 0 mm 2 m/S 757 mmHg 38%
    17:00 +37°C° 0 mm 2 m/S 757 mmHg 43%
    18:00 +36°C° 0 mm 2 m/S 757 mmHg 48%
    19:00 +34°C° 0 mm 2 m/S 757 mmHg 53%
    20:00 +32°C° 0 mm 2 m/S 757 mmHg 57%
    21:00 +30°C° 0 mm 2 m/S 758 mmHg 62%
    22:00 +30°C° 0 mm 2 m/S 758 mmHg 64%
    23:00 +29°C° 0 mm 1 m/S 758 mmHg 66%

    29 Januar, Dienstag

    Zeit Temperatur Niederschläge Wind Luftdruck Luftfeuchtigkeit
    00:00 +29°C° 0 mm 1 m/S 758 mmHg 69%
    01:00 +27°C° 0 mm 0 m/S 758 mmHg 69%
    02:00 +26°C° 0 mm 0 m/S 757 mmHg 69%
    03:00 +26°C° 0 mm 0 m/S 757 mmHg 69%
    04:00 +26°C° 0 mm 0 m/S 757 mmHg 69%
    05:00 +28°C° 0 mm 1 m/S 757 mmHg 68%
    06:00 +28°C° 0 mm 1 m/S 757 mmHg 67%
    07:00 +30°C° 0 mm 2 m/S 758 mmHg 62%
    08:00 +31°C° 0 mm 2 m/S 758 mmHg 57%
    09:00 +34°C° 0 mm 2 m/S 758 mmHg 52%
    10:00 +36°C° 0 mm 3 m/S 758 mmHg 46%
    11:00 +38°C° 0 mm 3 m/S 758 mmHg 39%
    12:00 +40°C° 0 mm 3 m/S 757 mmHg 33%
    13:00 +40°C° 0 mm 3 m/S 757 mmHg 32%
    14:00 +42°C° 0 mm 3 m/S 756 mmHg 31%
    15:00 +41°C° 0 mm 2 m/S 756 mmHg 30%
    16:00 +39°C° 0 mm 2 m/S 756 mmHg 35%
    17:00 +38°C° 0 mm 2 m/S 756 mmHg 40%
    18:00 +36°C° 0 mm 1 m/S 756 mmHg 45%
    19:00 +34°C° 1.2 mm 1 m/S 756 mmHg 54%
    20:00 +32°C° 1.2 mm 1 m/S 757 mmHg 62%
    21:00 +29°C° 1.2 mm 1 m/S 757 mmHg 71%
    22:00 +29°C° 0.3 mm 1 m/S 757 mmHg 73%
    23:00 +29°C° 0.3 mm 2 m/S 757 mmHg 74%
    Mehr zeigen